TimeMDT,TemperatureF,Dew PointF,Humidity,Sea Level PressureIn,VisibilityMPH,Wind Direction,Wind SpeedMPH,Gust SpeedMPH,PrecipitationIn,Events,Conditions,WindDirDegrees,DateUTC
12:15 AM,60.8,48.2,63,30.36,10.0,NNW,3.5,-,N/A,,Mostly Cloudy,340,2013-07-25 06:15:00
12:35 AM,60.8,50.0,68,30.35,10.0,North,3.5,-,N/A,,Scattered Clouds,350,2013-07-25 06:35:00
12:55 AM,60.8,50.0,68,30.34,10.0,Calm,Calm,-,N/A,,Partly Cloudy,0,2013-07-25 06:55:00
1:15 AM,60.8,48.2,63,30.35,10.0,Calm,Calm,-,N/A,,Partly Cloudy,0,2013-07-25 07:15:00
1:35 AM,60.8,50.0,68,30.36,10.0,ESE,3.5,-,N/A,,Mostly Cloudy,110,2013-07-25 07:35:00
1:55 AM,59.0,48.2,67,30.35,10.0,Calm,Calm,-,N/A,,Scattered Clouds,0,2013-07-25 07:55:00
2:15 AM,57.2,46.4,67,30.35,10.0,NNE,6.9,-,N/A,,Scattered Clouds,20,2013-07-25 08:15:00
2:35 AM,55.4,50.0,82,30.35,10.0,North,5.8,-,N/A,,Scattered Clouds,10,2013-07-25 08:35:00
2:55 AM,55.4,51.8,88,30.35,10.0,North,5.8,-,N/A,,Clear,350,2013-07-25 08:55:00
3:15 AM,55.4,51.8,88,30.36,10.0,NNW,3.5,-,N/A,,Partly Cloudy,340,2013-07-25 09:15:00
3:35 AM,55.4,51.8,88,30.35,10.0,Calm,Calm,-,N/A,,Clear,0,2013-07-25 09:35:00
3:55 AM,55.4,51.8,88,30.36,10.0,Calm,Calm,-,N/A,,Partly Cloudy,0,2013-07-25 09:55:00
4:15 AM,53.6,48.2,82,30.36,10.0,Calm,Calm,-,N/A,,Clear,0,2013-07-25 10:15:00
4:35 AM,55.4,50.0,82,30.37,10.0,Calm,Calm,-,N/A,,Mostly Cloudy,0,2013-07-25 10:35:00
4:55 AM,55.4,48.2,77,30.36,10.0,Calm,Calm,-,N/A,,Overcast,0,2013-07-25 10:55:00
5:15 AM,55.4,48.2,77,30.35,10.0,Calm,Calm,-,N/A,,Mostly Cloudy,0,2013-07-25 11:15:00
5:55 AM,53.6,46.4,77,30.36,10.0,East,4.6,-,N/A,,Clear,100,2013-07-25 11:55:00
6:15 AM,51.8,46.4,82,30.36,10.0,East,3.5,-,N/A,,Clear,100,2013-07-25 12:15:00
6:35 AM,53.6,46.4,77,30.37,10.0,Calm,Calm,-,N/A,,Clear,0,2013-07-25 12:35:00
6:55 AM,55.4,48.2,77,30.37,10.0,Calm,Calm,-,N/A,,Mostly Cloudy,0,2013-07-25 12:55:00
7:15 AM,55.4,48.2,77,30.37,10.0,Calm,Calm,-,N/A,,Partly Cloudy,0,2013-07-25 13:15:00
7:35 AM,57.2,48.2,72,30.38,10.0,Calm,Calm,-,N/A,,Clear,0,2013-07-25 13:35:00
7:55 AM,57.2,50.0,77,30.39,10.0,North,3.5,-,N/A,,Mostly Cloudy,360,2013-07-25 13:55:00
8:15 AM,60.8,51.8,72,30.39,10.0,Calm,Calm,-,N/A,,Overcast,0,2013-07-25 14:15:00
8:35 AM,60.8,51.8,72,30.38,10.0,Calm,Calm,-,N/A,,Scattered Clouds,0,2013-07-25 14:35:00
8:55 AM,62.6,51.8,68,30.38,10.0,Calm,Calm,-,N/A,,Clear,0,2013-07-25 14:55:00
9:15 AM,62.6,51.8,68,30.38,10.0,Calm,Calm,-,N/A,,Clear,0,2013-07-25 15:15:00
9:35 AM,64.4,51.8,64,30.38,10.0,Calm,Calm,-,N/A,,Clear,0,2013-07-25 15:35:00
9:55 AM,66.2,51.8,60,30.38,10.0,WSW,5.8,-,N/A,,Clear,240,2013-07-25 15:55:00
10:15 AM,66.2,51.8,60,30.37,10.0,WSW,3.5,-,N/A,,Clear,250,2013-07-25 16:15:00
10:35 AM,69.8,51.8,53,30.37,10.0,Calm,Calm,-,N/A,,Clear,0,2013-07-25 16:35:00
10:55 AM,69.8,51.8,53,30.37,10.0,WNW,3.5,-,N/A,,Clear,290,2013-07-25 16:55:00
11:15 AM,71.6,51.8,50,30.36,10.0,West,5.8,-,N/A,,Clear,280,2013-07-25 17:15:00
11:35 AM,73.4,51.8,47,30.36,10.0,SW,3.5,-,N/A,,Clear,220,2013-07-25 17:35:00
11:55 AM,73.4,51.8,47,30.35,10.0,SW,5.8,-,N/A,,Clear,220,2013-07-25 17:55:00
12:15 PM,75.2,51.8,44,30.34,10.0,West,8.1,-,N/A,,Partly Cloudy,280,2013-07-25 18:15:00
12:35 PM,75.2,48.2,38,30.33,10.0,WSW,6.9,-,N/A,,Partly Cloudy,240,2013-07-25 18:35:00
12:55 PM,78.8,50.0,36,30.32,10.0,WNW,8.1,-,N/A,,Partly Cloudy,290,2013-07-25 18:55:00
1:15 PM,78.8,50.0,36,30.31,10.0,WSW,5.8,-,N/A,,Clear,240,2013-07-25 19:15:00
1:35 PM,80.6,48.2,32,30.31,10.0,Calm,Calm,-,N/A,,Clear,0,2013-07-25 19:35:00
1:55 PM,78.8,46.4,32,30.31,10.0,North,9.2,-,N/A,,Clear,350,2013-07-25 19:55:00
2:15 PM,78.8,46.4,32,30.30,10.0,NNW,6.9,-,N/A,,Clear,340,2013-07-25 20:15:00
2:35 PM,77.0,46.4,34,30.31,10.0,North,6.9,-,N/A,,Clear,350,2013-07-25 20:35:00
2:55 PM,77.0,48.2,36,30.30,10.0,NNW,10.4,-,N/A,,Partly Cloudy,330,2013-07-25 20:55:00
3:15 PM,80.6,51.8,37,30.29,10.0,NNW,10.4,18.4,N/A,,Clear,330,2013-07-25 21:15:00
3:35 PM,80.6,50.0,34,30.28,10.0,West,4.6,-,N/A,,Clear,270,2013-07-25 21:35:00
3:55 PM,80.6,48.2,32,30.27,10.0,West,5.8,-,N/A,,Clear,270,2013-07-25 21:55:00
4:15 PM,80.6,48.2,32,30.26,10.0,WNW,5.8,-,N/A,,Clear,290,2013-07-25 22:15:00
4:35 PM,82.4,46.4,28,30.25,10.0,West,3.5,-,N/A,,Clear,260,2013-07-25 22:35:00
4:55 PM,82.4,46.4,28,30.25,10.0,NNW,4.6,-,N/A,,Clear,340,2013-07-25 22:55:00
5:15 PM,82.4,44.6,26,30.24,10.0,Calm,Calm,-,N/A,,Clear,0,2013-07-25 23:15:00
5:35 PM,82.4,44.6,26,30.24,10.0,North,8.1,-,N/A,,Clear,350,2013-07-25 23:35:00
5:55 PM,82.4,44.6,26,30.24,10.0,NNW,8.1,-,N/A,,Clear,330,2013-07-25 23:55:00
6:15 PM,82.4,44.6,26,30.25,10.0,North,6.9,-,N/A,,Scattered Clouds,10,2013-07-26 00:15:00
6:35 PM,-9999,-9999,N/A,30.25,10.0,NNW,4.6,-,N/A,,Mostly Cloudy,340,2013-07-26 00:35:00
6:55 PM,-9999,-9999,N/A,30.26,10.0,ESE,26.5,31.1,N/A,,Mostly Cloudy,120,2013-07-26 00:55:00
7:15 PM,75.2,50.0,41,30.27,10.0,ESE,19.6,28.8,N/A,,Mostly Cloudy,120,2013-07-26 01:15:00
7:35 PM,73.4,50.0,44,30.27,10.0,ESE,26.5,33.4,N/A,,Mostly Cloudy,120,2013-07-26 01:35:00
7:55 PM,71.6,50.0,46,30.28,10.0,ESE,24.2,28.8,N/A,,Partly Cloudy,120,2013-07-26 01:55:00
8:15 PM,69.8,50.0,49,30.30,10.0,ESE,16.1,28.8,N/A,,Clear,120,2013-07-26 02:15:00
8:35 PM,69.8,50.0,49,30.32,10.0,ESE,15.0,23.0,N/A,,Partly Cloudy,110,2013-07-26 02:35:00
8:55 PM,69.8,48.2,46,30.34,10.0,ESE,9.2,23.0,N/A,,Mostly Cloudy,120,2013-07-26 02:55:00
9:15 PM,71.6,48.2,43,30.35,10.0,East,16.1,19.6,N/A,,Overcast,90,2013-07-26 03:15:00
9:35 PM,71.6,46.4,41,30.37,10.0,ENE,12.7,-,N/A,Thunderstorm,Overcast,70,2013-07-26 03:35:00
9:55 PM,66.2,51.8,60,30.39,10.0,NE,11.5,-,0.01,Thunderstorm,Overcast,50,2013-07-26 03:55:00
10:15 PM,62.6,53.6,72,30.40,10.0,NNW,10.4,-,0.03,,Overcast,340,2013-07-26 04:15:00
10:35 PM,60.8,57.2,88,30.41,10.0,NNE,5.8,-,0.04,,Overcast,20,2013-07-26 04:35:00
10:55 PM,60.8,55.4,82,30.41,10.0,ESE,5.8,-,0.04,,Overcast,120,2013-07-26 04:55:00
11:15 PM,60.8,55.4,82,30.40,10.0,SE,10.4,-,N/A,,Overcast,130,2013-07-26 05:15:00
11:35 PM,60.8,55.4,82,30.40,10.0,ESE,8.1,-,N/A,,Overcast,110,2013-07-26 05:35:00
11:55 PM,59.0,55.4,88,30.40,10.0,SSE,6.9,-,N/A,,Overcast,160,2013-07-26 05:55:00